Retour au catalogue

CENTISPACE-2 S3

ActifNavigationLEO
NORAD 68352·PAYLOAD·🇨🇳 China

Lancé Mar 22, 2026 depuis Yellow Sea Launch Area

Loading…

Prochains Passages (prochaines 24 heures)

TLE

FraisSource: Space-Track

Époque: Sep 14, 2026, 20:42 UTC

1 68352U 26060C   26257.86267424  .00000075  00000-0  97734-4 0  9995
2 68352  54.9815  47.1665 0006949 274.1321  85.8862 14.25713315 25731

Suivez CENTISPACE-2 S3 en temps réel avec AllMySat

Download on the App Store